Time,TemperatureF,DewpointF,PressureIn,WindDirection,WindDirectionDegrees,WindSpeedMPH,WindSpeedGustMPH,Humidity,HourlyPrecipIn,Conditions,Clouds,dailyrainin,SolarRadiationWatts/m^2,SoftwareType,DateUTC
2013-04-17 00:03:00,60.0,57.0,-100.00,SSW,197,3.0,9.0,91,0.00,,,0.00,0.000000,,2013-04-17 04:03:00,
2013-04-17 00:13:00,60.0,57.0,-100.00,SSW,197,3.0,9.0,91,0.00,,,0.00,0.000000,,2013-04-17 04:13:00,
2013-04-17 00:23:00,60.0,57.0,-100.00,SSW,197,3.0,9.0,91,0.00,,,0.00,0.000000,,2013-04-17 04:23:00,
2013-04-17 00:53:00,58.0,57.0,-100.00,South,191,2.0,6.0,96,0.00,,,0.00,0.000000,,2013-04-17 04:53:00,
2013-04-17 01:03:00,58.0,57.0,-100.00,South,191,2.0,6.0,96,0.00,,,0.00,0.000000,,2013-04-17 05:03:00,
2013-04-17 01:12:00,58.0,57.0,-100.00,South,191,2.0,6.0,96,0.00,,,0.00,0.000000,,2013-04-17 05:12:00,
2013-04-17 01:22:00,58.0,57.0,-100.00,South,191,2.0,6.0,96,0.00,,,0.00,0.000000,,2013-04-17 05:22:00,
2013-04-17 01:52:00,59.0,58.0,-100.00,SSW,200,2.0,7.0,95,0.00,,,0.00,0.000000,,2013-04-17 05:52:00,
2013-04-17 02:02:00,59.0,58.0,-100.00,SSW,200,2.0,7.0,95,0.00,,,0.00,0.000000,,2013-04-17 06:02:00,
2013-04-17 02:12:00,59.0,58.0,-100.00,SSW,200,2.0,7.0,95,0.00,,,0.00,0.000000,,2013-04-17 06:12:00,
2013-04-17 02:22:00,59.0,58.0,-100.00,SSW,200,2.0,7.0,95,0.00,,,0.00,0.000000,,2013-04-17 06:22:00,
2013-04-17 02:52:00,58.0,57.0,-100.00,SW,219,3.0,8.0,98,0.00,,,0.00,0.000000,,2013-04-17 06:52:00,
2013-04-17 03:02:00,58.0,57.0,-100.00,SW,219,3.0,8.0,98,0.00,,,0.00,0.000000,,2013-04-17 07:02:00,
2013-04-17 03:12:00,58.0,57.0,-100.00,SW,219,3.0,8.0,98,0.00,,,0.00,0.000000,,2013-04-17 07:12:00,
2013-04-17 03:22:00,58.0,57.0,-100.00,SW,219,3.0,8.0,98,0.00,,,0.00,0.000000,,2013-04-17 07:22:00,
2013-04-17 03:52:00,58.0,58.0,-100.00,SSW,208,2.0,8.0,100,0.00,,,0.00,0.000000,,2013-04-17 07:52:00,
2013-04-17 04:02:00,58.0,58.0,-100.00,SSW,208,2.0,8.0,100,0.00,,,0.00,0.000000,,2013-04-17 08:02:00,
2013-04-17 04:12:00,58.0,58.0,-100.00,SSW,208,2.0,8.0,100,0.00,,,0.00,0.000000,,2013-04-17 08:12:00,
2013-04-17 04:22:00,58.0,58.0,-100.00,SSW,208,2.0,8.0,100,0.00,,,0.00,0.000000,,2013-04-17 08:22:00,
2013-04-17 04:52:00,58.0,58.0,-100.00,SSW,213,4.0,10.0,100,0.00,,,0.00,0.000000,,2013-04-17 08:52:00,
2013-04-17 05:02:00,58.0,58.0,-100.00,SSW,213,4.0,10.0,100,0.00,,,0.00,0.000000,,2013-04-17 09:02:00,
2013-04-17 05:12:00,58.0,58.0,-100.00,SSW,213,4.0,10.0,100,0.00,,,0.00,0.000000,,2013-04-17 09:12:00,
2013-04-17 05:22:00,58.0,58.0,-100.00,SSW,213,4.0,10.0,100,0.00,,,0.00,0.000000,,2013-04-17 09:22:00,
2013-04-17 05:53:00,59.0,59.0,-100.00,SW,232,6.0,11.0,100,0.00,,,0.00,0.000000,,2013-04-17 09:53:00,
2013-04-17 06:03:00,59.0,59.0,-100.00,SW,232,6.0,11.0,100,0.00,,,0.00,0.000000,,2013-04-17 10:03:00,
2013-04-17 06:12:00,59.0,59.0,-100.00,SW,232,6.0,11.0,100,0.00,,,0.00,0.000000,,2013-04-17 10:12:00,
2013-04-17 06:23:00,59.0,59.0,-100.00,SW,232,6.0,11.0,100,0.00,,,0.00,0.000000,,2013-04-17 10:23:00,
2013-04-17 06:53:00,61.0,61.0,-100.00,SW,235,8.0,14.0,100,0.00,,,0.00,0.000000,,2013-04-17 10:53:00,
2013-04-17 07:02:00,61.0,61.0,-100.00,SW,235,8.0,14.0,100,0.00,,,0.00,0.000000,,2013-04-17 11:02:00,
2013-04-17 07:12:00,61.0,61.0,-100.00,SW,235,8.0,14.0,100,0.00,,,0.00,0.000000,,2013-04-17 11:12:00,
2013-04-17 07:22:00,61.0,61.0,-100.00,SW,235,8.0,14.0,100,0.00,,,0.00,0.000000,,2013-04-17 11:22:00,
2013-04-17 07:52:00,62.0,62.0,-100.00,WSW,244,8.0,14.0,99,0.00,,,0.00,47.000000,,2013-04-17 11:52:00,
2013-04-17 08:03:00,62.0,62.0,-100.00,WSW,244,8.0,14.0,99,0.00,,,0.00,47.000000,,2013-04-17 12:03:00,
2013-04-17 08:12:00,62.0,62.0,-100.00,WSW,244,8.0,14.0,99,0.00,,,0.00,47.000000,,2013-04-17 12:12:00,
2013-04-17 08:22:00,62.0,62.0,-100.00,WSW,244,8.0,14.0,99,0.00,,,0.00,47.000000,,2013-04-17 12:22:00,
2013-04-17 08:52:00,66.0,64.0,-100.00,WSW,246,8.0,13.0,93,0.00,,,0.00,143.000000,,2013-04-17 12:52:00,
2013-04-17 09:02:00,66.0,64.0,-100.00,WSW,246,8.0,13.0,93,0.00,,,0.00,143.000000,,2013-04-17 13:02:00,
2013-04-17 09:12:00,66.0,64.0,-100.00,WSW,246,8.0,13.0,93,0.00,,,0.00,143.000000,,2013-04-17 13:12:00,
2013-04-17 09:22:00,66.0,64.0,-100.00,WSW,246,8.0,13.0,93,0.00,,,0.00,143.000000,,2013-04-17 13:22:00,
2013-04-17 09:52:00,70.0,64.0,-100.00,West,280,7.0,13.0,80,0.00,,,0.00,353.000000,,2013-04-17 13:52:00,
2013-04-17 10:02:00,70.0,64.0,-100.00,West,280,7.0,13.0,80,0.00,,,0.00,353.000000,,2013-04-17 14:02:00,
2013-04-17 10:12:00,70.0,64.0,-100.00,West,280,7.0,13.0,80,0.00,,,0.00,353.000000,,2013-04-17 14:12:00,
2013-04-17 10:22:00,70.0,64.0,-100.00,West,280,7.0,13.0,80,0.00,,,0.00,353.000000,,2013-04-17 14:22:00,
2013-04-17 10:52:00,72.0,64.0,-100.00,North,6,5.0,12.0,75,0.00,,,0.00,486.000000,,2013-04-17 14:52:00,
2013-04-17 11:02:00,72.0,64.0,-100.00,North,6,5.0,12.0,75,0.00,,,0.00,486.000000,,2013-04-17 15:02:00,
2013-04-17 11:12:00,72.0,64.0,-100.00,North,6,5.0,12.0,75,0.00,,,0.00,486.000000,,2013-04-17 15:12:00,
2013-04-17 11:22:00,72.0,64.0,-100.00,North,6,5.0,12.0,75,0.00,,,0.00,486.000000,,2013-04-17 15:22:00,
2013-04-17 11:53:00,69.0,63.0,-100.00,ENE,65,5.0,8.0,81,0.00,,,0.00,691.000000,,2013-04-17 15:53:00,
2013-04-17 12:03:00,69.0,63.0,-100.00,ENE,65,5.0,8.0,81,0.00,,,0.00,691.000000,,2013-04-17 16:03:00,
2013-04-17 12:13:00,69.0,63.0,-100.00,ENE,65,5.0,8.0,81,0.00,,,0.00,691.000000,,2013-04-17 16:13:00,
2013-04-17 12:23:00,69.0,63.0,-100.00,ENE,65,5.0,8.0,81,0.00,,,0.00,691.000000,,2013-04-17 16:23:00,
2013-04-17 12:52:00,69.0,64.0,-100.00,ENE,70,5.0,9.0,84,0.00,,,0.00,735.000000,,2013-04-17 16:52:00,
2013-04-17 13:02:00,69.0,64.0,-100.00,ENE,70,5.0,9.0,84,0.00,,,0.00,735.000000,,2013-04-17 17:02:00,
2013-04-17 13:12:00,69.0,64.0,-100.00,ENE,70,5.0,9.0,84,0.00,,,0.00,735.000000,,2013-04-17 17:12:00,
2013-04-17 13:22:00,69.0,64.0,-100.00,ENE,70,5.0,9.0,84,0.00,,,0.00,735.000000,,2013-04-17 17:22:00,
2013-04-17 13:52:00,70.0,64.0,-100.00,ENE,69,7.0,12.0,81,0.00,,,0.00,759.000000,,2013-04-17 17:52:00,
2013-04-17 14:02:00,70.0,64.0,-100.00,ENE,69,7.0,12.0,81,0.00,,,0.00,759.000000,,2013-04-17 18:02:00,
2013-04-17 14:12:00,70.0,64.0,-100.00,ENE,69,7.0,12.0,81,0.00,,,0.00,759.000000,,2013-04-17 18:12:00,
2013-04-17 14:22:00,70.0,64.0,-100.00,ENE,69,7.0,12.0,81,0.00,,,0.00,759.000000,,2013-04-17 18:22:00,
2013-04-17 14:52:00,58.0,56.0,-100.00,East,96,18.0,25.0,94,0.00,,,0.00,460.000000,,2013-04-17 18:52:00,
2013-04-17 15:02:00,58.0,56.0,-100.00,East,96,18.0,25.0,94,0.00,,,0.00,460.000000,,2013-04-17 19:02:00,
2013-04-17 15:12:00,58.0,56.0,-100.00,East,96,18.0,25.0,94,0.00,,,0.00,460.000000,,2013-04-17 19:12:00,
2013-04-17 15:22:00,58.0,56.0,-100.00,East,96,18.0,25.0,94,0.00,,,0.00,460.000000,,2013-04-17 19:22:00,
2013-04-17 15:52:00,57.0,54.0,-100.00,East,101,15.0,21.0,91,0.00,,,0.00,180.000000,,2013-04-17 19:52:00,
2013-04-17 16:03:00,57.0,54.0,-100.00,East,101,15.0,21.0,91,0.00,,,0.00,180.000000,,2013-04-17 20:03:00,
2013-04-17 16:12:00,57.0,54.0,-100.00,East,101,15.0,21.0,91,0.00,,,0.00,180.000000,,2013-04-17 20:12:00,
2013-04-17 16:22:00,57.0,54.0,-100.00,East,101,15.0,21.0,91,0.00,,,0.00,180.000000,,2013-04-17 20:22:00,
2013-04-17 16:52:00,57.0,50.0,-100.00,ESE,114,11.0,19.0,78,0.00,,,0.00,177.000000,,2013-04-17 20:52:00,
2013-04-17 17:03:00,57.0,50.0,-100.00,ESE,114,11.0,19.0,78,0.00,,,0.00,177.000000,,2013-04-17 21:03:00,
2013-04-17 17:12:00,57.0,50.0,-100.00,ESE,114,11.0,19.0,78,0.00,,,0.00,177.000000,,2013-04-17 21:12:00,
2013-04-17 17:22:00,57.0,50.0,-100.00,ESE,114,11.0,19.0,78,0.00,,,0.00,177.000000,,2013-04-17 21:22:00,
2013-04-17 17:53:00,59.0,51.0,-100.00,ESE,110,9.0,17.0,75,0.00,,,0.00,206.000000,,2013-04-17 21:53:00,
2013-04-17 18:02:00,59.0,51.0,-100.00,ESE,110,9.0,17.0,75,0.00,,,0.00,206.000000,,2013-04-17 22:02:00,
2013-04-17 18:13:00,59.0,51.0,-100.00,ESE,110,9.0,17.0,75,0.00,,,0.00,206.000000,,2013-04-17 22:13:00,
2013-04-17 18:22:00,59.0,51.0,-100.00,ESE,110,9.0,17.0,75,0.00,,,0.00,206.000000,,2013-04-17 22:22:00,
2013-04-17 18:53:00,60.0,49.0,-100.00,SE,126,5.0,12.0,67,0.00,,,0.00,211.000000,,2013-04-17 22:53:00,
2013-04-17 19:02:00,60.0,49.0,-100.00,SE,126,5.0,12.0,67,0.00,,,0.00,211.000000,,2013-04-17 23:02:00,
2013-04-17 19:12:00,60.0,49.0,-100.00,SE,126,5.0,12.0,67,0.00,,,0.00,211.000000,,2013-04-17 23:12:00,
2013-04-17 19:22:00,60.0,49.0,-100.00,SE,126,5.0,12.0,67,0.00,,,0.00,211.000000,,2013-04-17 23:22:00,
2013-04-17 19:52:00,58.0,48.0,-100.00,ESE,123,4.0,11.0,70,0.00,,,0.00,41.000000,,2013-04-17 23:52:00,
2013-04-17 20:02:00,58.0,48.0,-100.00,ESE,123,4.0,11.0,70,0.00,,,0.00,41.000000,,2013-04-18 00:02:00,
2013-04-17 20:12:00,58.0,48.0,-100.00,ESE,123,4.0,11.0,70,0.00,,,0.00,41.000000,,2013-04-18 00:12:00,
2013-04-17 20:22:00,58.0,48.0,-100.00,ESE,123,4.0,11.0,70,0.00,,,0.00,41.000000,,2013-04-18 00:22:00,
2013-04-17 20:52:00,57.0,48.0,-100.00,ESE,115,5.0,9.0,72,0.00,,,0.00,1.000000,,2013-04-18 00:52:00,
2013-04-17 21:02:00,57.0,48.0,-100.00,ESE,115,5.0,9.0,72,0.00,,,0.00,1.000000,,2013-04-18 01:02:00,
2013-04-17 21:12:00,57.0,48.0,-100.00,ESE,115,5.0,9.0,72,0.00,,,0.00,1.000000,,2013-04-18 01:12:00,
2013-04-17 21:22:00,57.0,48.0,-100.00,ESE,115,5.0,9.0,72,0.00,,,0.00,1.000000,,2013-04-18 01:22:00,
2013-04-17 21:52:00,56.0,52.0,-100.00,ESE,111,7.0,10.0,88,0.00,,,0.00,0.000000,,2013-04-18 01:52:00,
2013-04-17 22:02:00,56.0,52.0,-100.00,ESE,111,7.0,10.0,88,0.00,,,0.00,0.000000,,2013-04-18 02:02:00,
2013-04-17 22:12:00,56.0,52.0,-100.00,ESE,111,7.0,10.0,88,0.00,,,0.00,0.000000,,2013-04-18 02:12:00,
2013-04-17 22:22:00,56.0,52.0,-100.00,ESE,111,7.0,10.0,88,0.00,,,0.00,0.000000,,2013-04-18 02:22:00,
2013-04-17 23:02:00,54.0,51.0,-100.00,ESE,109,8.0,11.0,91,0.00,,,0.00,0.000000,,2013-04-18 03:02:00,
2013-04-17 23:12:00,54.0,51.0,-100.00,ESE,109,8.0,11.0,91,0.00,,,0.00,0.000000,,2013-04-18 03:12:00,
2013-04-17 23:22:00,54.0,51.0,-100.00,ESE,109,8.0,11.0,91,0.00,,,0.00,0.000000,,2013-04-18 03:22:00,
2013-04-17 23:53:00,54.0,49.0,-100.00,ESE,115,6.0,11.0,82,0.00,,,0.00,0.000000,,2013-04-18 03:53:00,